�ϑ�����,�씨�_��,�܃P�R�_��,�ҐU�_��,�ȟ��_��,�]��_��,�v���_��,���J�_��,����_��,���~���_��,���v,
2024/05/22 02:00,3260,23011,2788,2244,15708,1373,4661,3343,1161,57549,
2024/05/22 01:00,3262,23011,2785,2246,15708,1373,4664,3343,1161,57553,
2024/05/22 00:00,3262,23011,2785,2246,15708,1373,4664,3343,1162,57554,
2024/05/21 23:00,3264,23011,2785,2248,15708,1373,4664,3343,1162,57558,
2024/05/21 22:00,3266,23011,2785,2250,15708,1373,4667,3343,1162,57565,
2024/05/21 21:00,3268,23011,2783,2250,15701,1373,4667,3343,1162,57558,
2024/05/21 20:00,3268,23011,2783,2251,15701,1374,4667,3343,1162,57560,
2024/05/21 19:00,3270,23011,2783,2251,15701,1374,4670,3343,1162,57565,
2024/05/21 18:00,3273,23011,2783,2253,15701,1374,4670,3343,1162,57570,
2024/05/21 17:00,3275,23011,2780,2255,15701,1374,4670,3343,1162,57571,
2024/05/21 16:00,3277,23011,2780,2257,15701,1374,4673,3343,1162,57578,
2024/05/21 15:00,3277,23002,2780,2257,15701,1374,4673,3343,1162,57569,
2024/05/21 14:00,3279,23002,2780,2259,15701,1374,4673,3343,1162,57573,
2024/05/21 13:00,3281,23002,2780,2261,15701,1374,4676,3343,1163,57581,
2024/05/21 12:00,3283,23002,2777,2261,15701,1375,4676,3343,1163,57581,
2024/05/21 11:00,3285,23002,2777,2261,15694,1375,4676,3343,1163,57576,
2024/05/21 10:00,3288,23002,2777,2263,15694,1375,4676,3345,1163,57581,
2024/05/21 09:00,3290,23002,2777,2263,15694,1376,4676,3345,1163,57584,
2024/05/21 08:00,3292,23002,2775,2263,15687,1376,4676,3345,1163,57579,
2024/05/21 07:00,3292,23002,2775,2265,15687,1376,4679,3345,1163,57584,
2024/05/21 06:00,3294,22992,2775,2265,15687,1376,4679,3345,1163,57576,
2024/05/21 05:00,3297,22992,2772,2265,15687,1376,4679,3345,1163,57576,
2024/05/21 04:00,3299,22992,2772,2265,15687,1376,4679,3345,1163,57578,
2024/05/21 03:00,3301,22992,2772,2265,15687,1376,4679,3345,1163,57580,
2024/05/21 02:00,3303,22992,2772,2265,15687,1376,4679,3345,1163,57582,
2024/05/21 01:00,3303,22992,2770,2265,15680,1376,4679,3345,1163,57573,
2024/05/21 00:00,3305,22992,2770,2267,15680,1376,4682,3345,1163,57580,
2024/05/20 23:00,3308,22992,2770,2267,15680,1378,4682,3345,1163,57585,
2024/05/20 22:00,3310,22992,2770,2267,15680,1378,4682,3345,1163,57587,
2024/05/20 21:00,3310,22992,2767,2267,15680,1378,4682,3345,1163,57584,
2024/05/20 20:00,3312,22992,2767,2267,15680,1378,4682,3345,1163,57586,
2024/05/20 19:00,3314,22983,2767,2267,15680,1378,4682,3345,1163,57579,
2024/05/20 18:00,3317,22983,2767,2267,15674,1378,4682,3345,1163,57576,
2024/05/20 17:00,3317,22983,2764,2267,15674,1378,4685,3345,1163,57576,
2024/05/20 16:00,3319,22983,2764,2268,15674,1378,4685,3345,1164,57580,
2024/05/20 15:00,3321,22983,2764,2268,15674,1378,4685,3345,1164,57582,
2024/05/20 14:00,3323,22983,2764,2268,15674,1378,4685,3345,1164,57584,
2024/05/20 13:00,3326,22983,2764,2268,15674,1378,4685,3345,1164,57587,
2024/05/20 12:00,3326,22983,2762,2268,15674,1378,4685,3345,1164,57585,
2024/05/20 11:00,3328,22983,2762,2268,15667,1378,4685,3345,1164,57580,
2024/05/20 10:00,3330,22983,2762,2270,15667,1380,4685,3345,1164,57586,
2024/05/20 09:00,3332,22973,2762,2270,15667,1380,4685,3345,1164,57578,
2024/05/20 08:00,3335,22973,2759,2272,15660,1380,4688,3351,1164,57582,
2024/05/20 07:00,3337,22973,2759,2274,15667,1380,4688,3351,1165,57594,
2024/05/20 06:00,3337,22973,2759,2274,15660,1380,4688,3351,1165,57587,
2024/05/20 05:00,3339,22973,2757,2276,15660,1380,4688,3351,1165,57589,
2024/05/20 04:00,3341,22973,2757,2276,15660,1380,4688,3351,1166,57592,
2024/05/20 03:00,3343,22973,2757,2278,15660,1380,4688,3351,1166,57596,
2024/05/20 02:00,3346,22973,2757,2280,15660,1380,4688,3351,1166,57601,
2024/05/20 01:00,3346,22973,2754,2280,15660,1380,4691,3351,1166,57601,
2024/05/20 00:00,3348,22973,2754,2282,15653,1380,4691,3351,1166,57598,
2024/05/19 23:00,3350,22964,2754,2284,15653,1380,4691,3351,1166,57593,
2024/05/19 22:00,3352,22964,2754,2284,15653,1380,4691,3351,1166,57595,
2024/05/19 21:00,3352,22964,2751,2286,15653,1380,4691,3351,1167,57595,
2024/05/19 20:00,3355,22964,2751,2288,15653,1380,4691,3351,1167,57600,
2024/05/19 19:00,3357,22964,2751,2288,15647,1380,4694,3351,1169,57601,
2024/05/19 18:00,3359,22964,2751,2289,15647,1382,4694,3351,1169,57606,
2024/05/19 17:00,3359,22964,2749,2289,15647,1382,4694,3351,1169,57604,
2024/05/19 16:00,3361,22964,2749,2291,15647,1382,4694,3351,1169,57608,
2024/05/19 15:00,3364,22964,2749,2293,15647,1383,4694,3351,1169,57614,
2024/05/19 14:00,3366,22954,2749,2293,15647,1383,4694,3351,1169,57606,
2024/05/19 13:00,3366,22954,2746,2295,15647,1383,4697,3351,1169,57608,
2024/05/19 12:00,3368,22954,2746,2297,15647,1383,4697,3351,1169,57612,
2024/05/19 11:00,3370,22954,2746,2297,15640,1383,4697,3351,1169,57607,
2024/05/19 10:00,3373,22954,2746,2299,15640,1383,4697,3351,1169,57612,
2024/05/19 09:00,3375,22954,2744,2299,15640,1383,4697,3351,1169,57612,
2024/05/19 08:00,3375,22954,2744,2297,15640,1383,4697,3351,1170,57611,
2024/05/19 07:00,3377,22954,2744,2297,15640,1383,4697,3351,1170,57613,
2024/05/19 06:00,3379,22954,2741,2297,15633,1384,4697,3351,1170,57606,
2024/05/19 05:00,3381,22954,2741,2297,15633,1384,4697,3351,1170,57608,
2024/05/19 04:00,3384,22945,2741,2295,15633,1384,4697,3351,1171,57601,
2024/05/19 03:00,3384,22945,2741,2295,15633,1384,4697,3351,1171,57601,
2024/05/19 02:00,3386,22945,2738,2295,15633,1384,4697,3351,1171,57600,
2024/05/19 01:00,3388,22945,2738,2295,15627,1384,4697,3351,1171,57596,
2024/05/19 00:00,3390,22945,2738,2295,15627,1384,4697,3351,1172,57599,
2024/05/18 23:00,3390,22945,2736,2295,15627,1385,4697,3351,1172,57598,
2024/05/18 22:00,3393,22945,2736,2295,15627,1385,4697,3351,1172,57601,
2024/05/18 21:00,3395,22945,2736,2295,15627,1385,4697,3351,1172,57603,
2024/05/18 20:00,3395,22935,2736,2295,15627,1385,4697,3351,1172,57593,
2024/05/18 19:00,3397,22935,2733,2297,15620,1385,4697,3351,1173,57588,
2024/05/18 18:00,3399,22935,2733,2299,15620,1385,4697,3351,1173,57592,
2024/05/18 17:00,3402,22935,2733,2299,15620,1385,4697,3351,1173,57595,
2024/05/18 16:00,3402,22935,2731,2301,15620,1385,4697,3351,1173,57595,
2024/05/18 15:00,3404,22935,2731,2303,15620,1385,4697,3351,1173,57599,
2024/05/18 14:00,3406,22935,2731,2303,15620,1385,4697,3351,1173,57601,
2024/05/18 13:00,3408,22935,2731,2305,15613,1386,4700,3351,1174,57603,
2024/05/18 12:00,3408,22935,2728,2305,15613,1387,4700,3351,1174,57601,
2024/05/18 11:00,3411,22925,2728,2307,15613,1387,4700,3351,1174,57596,
2024/05/18 10:00,3413,22925,2728,2309,15613,1387,4700,3351,1175,57601,
2024/05/18 09:00,3415,22925,2728,2309,15607,1387,4700,3351,1175,57597,
2024/05/18 08:00,3415,22925,2725,2309,15607,1388,4700,3351,1175,57595,
2024/05/18 07:00,3417,22925,2725,2309,15607,1388,4700,3351,1175,57597,
2024/05/18 06:00,3419,22925,2725,2309,15607,1388,4700,3351,1176,57600,
2024/05/18 05:00,3422,22925,2723,2309,15607,1388,4700,3351,1176,57601,
2024/05/18 04:00,3422,22925,2723,2309,15600,1388,4700,3351,1176,57594,
2024/05/18 03:00,3424,22916,2723,2309,15600,1388,4700,3351,1176,57587,
2024/05/18 02:00,3426,22916,2720,2309,15600,1388,4700,3351,1176,57586,
2024/05/18 01:00,3426,22916,2720,2309,15600,1388,4700,3351,1176,57586,
2024/05/18 00:00,3428,22916,2720,2309,15600,1388,4700,3351,1176,57588,
2024/05/17 23:00,3431,22916,2718,2309,15600,1389,4700,3351,1176,57590,
2024/05/17 22:00,3431,22916,2718,2309,15593,1389,4700,3351,1176,57583,
2024/05/17 21:00,3433,22906,2718,2309,15593,1389,4700,3351,1177,57576,
2024/05/17 20:00,3435,22906,2718,2309,15593,1389,4700,3351,1177,57578,
2024/05/17 19:00,3435,22906,2715,2309,15593,1389,4700,3351,1177,57575,
2024/05/17 18:00,3437,22906,2715,2309,15593,1391,4700,3351,1178,57580,
2024/05/17 17:00,3440,22906,2715,2309,15587,1391,4700,3351,1178,57577,
2024/05/17 16:00,3440,22906,2712,2309,15587,1391,4700,3351,1178,57574,
2024/05/17 15:00,3442,22906,2712,2309,15587,1391,4700,3351,1178,57576,
2024/05/17 14:00,3442,22906,2712,2309,15587,1391,4700,3351,1178,57576,
2024/05/17 13:00,3444,22906,2712,2311,15587,1391,4700,3351,1178,57580,
2024/05/17 12:00,3446,22897,2710,2312,15587,1391,4700,3351,1178,57572,
2024/05/17 11:00,3446,22897,2710,2312,15587,1391,4700,3351,1178,57572,
2024/05/17 10:00,3449,22897,2710,2314,15580,1391,4700,3351,1178,57570,
2024/05/17 09:00,3451,22897,2710,2314,15580,1391,4700,3351,1178,57572,
2024/05/17 08:00,3451,22897,2707,2316,15580,1391,4700,3351,1179,57572,
2024/05/17 07:00,3453,22897,2707,2316,15580,1391,4700,3351,1179,57574,
2024/05/17 06:00,3455,22897,2704,2316,15574,1391,4703,3351,1179,57570,
2024/05/17 05:00,3455,22897,2704,2318,15574,1391,4703,3351,1179,57572,
2024/05/17 04:00,3457,22897,2704,2318,15574,1391,4703,3351,1179,57574,
2024/05/17 03:00,3460,22887,2704,2318,15574,1391,4703,3351,1179,57567,
2024/05/17 02:00,3460,22887,2702,2318,15567,1391,4703,3351,1179,57558,
2024/05/17 01:00,3462,22887,2702,2320,15567,1391,4703,3351,1179,57562,
2024/05/17 00:00,3464,22887,2702,2320,15567,1391,4703,3351,1180,57565,
2024/05/16 23:00,3464,22887,2702,2320,15567,1391,4703,3351,1180,57565,
2024/05/16 22:00,3466,22887,2699,2322,15567,1391,4703,3351,1180,57566,
2024/05/16 21:00,3466,22887,2699,2322,15567,1391,4703,3351,1180,57566,
2024/05/16 20:00,3469,22878,2699,2322,15560,1391,4706,3351,1181,57557,
2024/05/16 19:00,3471,22878,2697,2324,15560,1391,4706,3351,1181,57559,
2024/05/16 18:00,3471,22878,2697,2326,15560,1391,4706,3351,1181,57561,
2024/05/16 17:00,3473,22878,2697,2326,15560,1391,4706,3351,1181,57563,
2024/05/16 16:00,3475,22868,2694,2326,15554,1391,4706,3351,1181,57546,
2024/05/16 15:00,3475,22868,2694,2326,15560,1393,4706,3351,1181,57554,
2024/05/16 14:00,3478,22868,2694,2328,15554,1393,4709,3351,1182,57557,
2024/05/16 13:00,3480,22868,2691,2330,15554,1393,4706,3351,1182,57555,
2024/05/16 12:00,3480,22868,2691,2330,15547,1393,4709,3351,1182,57551,
2024/05/16 11:00,3482,22868,2691,2330,15547,1393,4709,3351,1182,57553,
2024/05/16 10:00,3484,22868,2691,2330,15554,1393,4709,3351,1182,57562,
2024/05/16 09:00,3484,22868,2689,2332,15547,1393,4709,3351,1182,57555,
2024/05/16 08:00,3487,22868,2689,2332,15547,1393,4709,3350,1182,57557,
2024/05/16 07:00,3487,22859,2689,2335,15547,1393,4712,3350,1182,57554,
2024/05/16 06:00,3489,22868,2686,2335,15547,1393,4712,3350,1182,57562,
2024/05/16 05:00,3489,22859,2686,2335,15540,1393,4712,3350,1182,57546,
2024/05/16 04:00,3491,22859,2686,2337,15540,1394,4715,3350,1182,57554,
2024/05/16 03:00,3491,22859,2684,2339,15540,1394,4715,3350,1183,57555,
2024/05/16 02:00,3493,22859,2684,2339,15534,1394,4715,3350,1183,57551,
2024/05/16 01:00,3495,22849,2684,2341,15534,1394,4715,3350,1183,57545,
2024/05/16 00:00,3495,22849,2681,2341,15534,1394,4715,3350,1183,57542,
2024/05/15 23:00,3495,22849,2681,2343,15534,1395,4715,3350,1183,57545,
2024/05/15 22:00,3498,22849,2678,2343,15534,1395,4718,3350,1183,57548,
2024/05/15 21:00,3500,22840,2678,2345,15534,1396,4718,3350,1183,57544,
2024/05/15 20:00,3500,22840,2678,2345,15534,1396,4718,3350,1184,57545,
2024/05/15 19:00,3502,22840,2676,2347,15527,1396,4718,3350,1184,57540,
2024/05/15 18:00,3502,22840,2676,2347,15527,1396,4718,3350,1184,57540,
2024/05/15 17:00,3504,22830,2676,2349,15527,1396,4718,3350,1184,57534,
2024/05/15 16:00,3504,22830,2673,2349,15521,1396,4718,3350,1184,57525,
2024/05/15 15:00,3504,22830,2673,2351,15521,1396,4718,3350,1184,57527,
2024/05/15 14:00,3504,22830,2673,2351,15521,1396,4721,3350,1185,57531,
2024/05/15 13:00,3504,22830,2671,2353,15521,1396,4721,3350,1185,57531,
2024/05/15 12:00,3504,22830,2671,2353,15514,1397,4721,3350,1185,57525,
2024/05/15 11:00,3504,22830,2668,2355,15514,1397,4721,3350,1185,57524,
2024/05/15 10:00,3504,22830,2668,2357,15514,1397,4721,3350,1185,57526,
2024/05/15 09:00,3504,22820,2668,2357,15507,1397,4721,3350,1185,57509,
2024/05/15 08:00,3504,22820,2665,2357,15507,1397,4721,3346,1185,57502,
2024/05/15 07:00,3504,22820,2665,2358,15507,1398,4721,3346,1185,57504,
2024/05/15 06:00,3502,22820,2663,2358,15507,1398,4724,3346,1185,57503,
2024/05/15 05:00,3502,22820,2663,2358,15507,1398,4724,3346,1185,57503,
2024/05/15 04:00,3502,22820,2663,2358,15507,1398,4724,3346,1185,57503,
2024/05/15 03:00,3502,22820,2660,2358,15501,1398,4724,3346,1185,57494,
2024/05/15 02:00,3502,22820,2660,2358,15501,1398,4724,3346,1185,57494,
2024/05/15 01:00,3502,22820,2660,2358,15501,1398,4724,3346,1185,57494,
2024/05/15 00:00,3502,22811,2658,2358,15501,1398,4724,3346,1185,57483,
2024/05/14 23:00,3502,22811,2658,2358,15494,1398,4724,3346,1185,57476,
2024/05/14 22:00,3502,22811,2655,2358,15494,1399,4724,3346,1185,57474,
2024/05/14 21:00,3500,22811,2655,2360,15494,1399,4727,3346,1185,57477,
2024/05/14 20:00,3500,22811,2655,2360,15487,1399,4727,3346,1185,57470,
2024/05/14 19:00,3500,22811,2653,2362,15487,1399,4727,3346,1185,57470,
2024/05/14 18:00,3500,22811,2653,2362,15487,1399,4727,3346,1185,57470,
2024/05/14 17:00,3500,22811,2650,2362,15487,1400,4727,3346,1185,57468,
2024/05/14 16:00,3500,22801,2650,2364,15481,1400,4727,3346,1185,57454,
2024/05/14 15:00,3500,22801,2650,2364,15481,1400,4727,3346,1185,57454,
2024/05/14 14:00,3498,22801,2648,2364,15481,1400,4727,3346,1185,57450,
2024/05/14 13:00,3498,22801,2648,2366,15481,1400,4727,3346,1185,57452,
2024/05/14 12:00,3498,22801,2645,2366,15481,1400,4727,3346,1185,57449,
2024/05/14 11:00,3498,22801,2645,2366,15474,1400,4730,3346,1185,57445,
2024/05/14 10:00,3498,22801,2645,2366,15474,1400,4730,3346,1185,57445,
2024/05/14 09:00,3495,22792,2643,2366,15467,1400,4730,3346,1185,57424,
2024/05/14 08:00,3495,22792,2643,2366,15467,1400,4730,3331,1185,57409,
2024/05/14 07:00,3495,22792,2640,2368,15467,1400,4730,3331,1185,57408,
2024/05/14 06:00,3495,22792,2640,2368,15467,1400,4730,3331,1185,57408,
2024/05/14 05:00,3493,22792,2638,2368,15461,1400,4730,3331,1185,57398,
2024/05/14 04:00,3493,22782,2638,2368,15461,1400,4730,3331,1185,57388,
2024/05/14 03:00,3493,22782,2635,2368,15454,1400,4730,3331,1185,57378,
2024/05/14 02:00,3491,22782,2635,2368,15454,1400,4730,3331,1185,57376,
2024/05/14 01:00,3491,22782,2633,2368,15454,1400,4730,3331,1185,57374,
2024/05/14 00:00,3491,22782,2633,2368,15448,1400,4730,3331,1185,57368,
2024/05/13 23:00,3489,22773,2630,2368,15448,1400,4730,3331,1185,57354,
2024/05/13 22:00,3489,22773,2630,2368,15441,1400,4730,3331,1185,57347,
2024/05/13 21:00,3487,22773,2628,2368,15441,1400,4730,3331,1185,57343,
2024/05/13 20:00,3487,22773,2628,2368,15434,1400,4730,3331,1185,57336,
2024/05/13 19:00,3484,22773,2625,2368,15434,1400,4730,3331,1185,57330,
2024/05/13 18:00,3484,22773,2625,2368,15428,1400,4730,3331,1185,57324,
2024/05/13 17:00,3484,22763,2623,2368,15428,1400,4730,3331,1185,57312,
2024/05/13 16:00,3482,22763,2623,2368,15428,1400,4730,3331,1185,57310,
2024/05/13 15:00,3480,22763,2623,2368,15428,1400,4730,3331,1184,57307,
2024/05/13 14:00,3480,22763,2620,2368,15421,1400,4730,3331,1184,57297,
2024/05/13 13:00,3478,22754,2618,2368,15421,1400,4730,3331,1184,57284,
2024/05/13 12:00,3475,22754,2618,2368,15414,1400,4730,3331,1184,57274,
2024/05/13 11:00,3475,22754,2615,2368,15414,1400,4730,3331,1184,57271,
2024/05/13 10:00,3471,22744,2613,2368,15408,1400,4730,3331,1183,57248,
2024/05/13 09:00,3469,22744,2613,2368,15401,1400,4730,3331,1182,57238,
2024/05/13 08:00,3466,22735,2610,2368,15395,1400,4727,3305,1182,57188,
2024/05/13 07:00,3464,22735,2608,2368,15388,1400,4727,3305,1182,57177,
2024/05/13 06:00,3462,22725,2608,2368,15381,1400,4727,3305,1182,57158,
2024/05/13 05:00,3460,22725,2605,2368,15375,1400,4727,3305,1181,57146,
2024/05/13 04:00,3457,22716,2603,2368,15368,1400,4727,3305,1181,57125,
2024/05/13 03:00,3455,22716,2600,2366,15355,1400,4727,3305,1180,57104,
2024/05/13 02:00,3451,22706,2597,2366,15342,1400,4727,3305,1180,57074,
2024/05/13 01:00,3446,22697,2595,2364,15335,1400,4727,3305,1179,57048,
2024/05/13 00:00,3442,22688,2592,2362,15322,1400,4727,3305,1178,57016,
2024/05/12 23:00,3437,22678,2590,2360,15308,1400,4727,3305,1178,56983,
2024/05/12 22:00,3431,22669,2585,2360,15295,1400,4724,3305,1177,56946,
2024/05/12 21:00,3424,22659,2582,2358,15282,1400,4724,3305,1176,56910,
2024/05/12 20:00,3419,22650,2577,2357,15269,1400,4724,3305,1175,56876,
2024/05/12 19:00,3413,22640,2575,2355,15255,1400,4724,3305,1174,56841,
2024/05/12 18:00,3408,22621,2570,2353,15242,1400,4721,3305,1173,56793,
2024/05/12 17:00,3399,22612,2567,2351,15222,1400,4721,3305,1172,56749,
2024/05/12 16:00,3386,22593,2560,2347,15202,1400,4721,3305,1172,56686,
2024/05/12 15:00,3377,22565,2552,2345,15196,1400,4721,3305,1171,56632,
2024/05/12 14:00,3364,22536,2547,2341,15189,1400,4721,3305,1169,56572,
2024/05/12 13:00,3346,22508,2540,2339,15176,1400,4718,3305,1168,56500,
2024/05/12 12:00,3330,22470,2532,2335,15169,1399,4718,3305,1167,56425,
2024/05/12 11:00,3317,22442,2525,2334,15163,1399,4718,3305,1166,56369,
2024/05/12 10:00,3305,22414,2520,2332,15156,1399,4715,3305,1166,56312,
2024/05/12 09:00,3297,22395,2515,2328,15156,1398,4715,3305,1165,56274,
2024/05/12 08:00,3292,22376,2510,2324,15149,1399,4715,3305,1164,56234,
2024/05/12 07:00,3290,22366,2508,2324,15149,1399,4715,3305,1164,56220,
2024/05/12 06:00,3290,22366,2505,2324,15149,1399,4715,3305,1164,56217,
2024/05/12 05:00,3290,22357,2503,2322,15149,1399,4718,3305,1164,56207,
2024/05/12 04:00,3290,22366,2503,2322,15149,1399,4718,3305,1164,56216,
2024/05/12 03:00,3290,22366,2503,2322,15149,1399,4718,3305,1164,56216,
2024/05/12 02:00,3292,22366,2501,2320,15143,1399,4718,3305,1164,56208,
2024/05/12 01:00,3292,22366,2501,2320,15143,1399,4718,3305,1164,56208,
2024/05/12 00:00,3292,22366,2501,2320,15143,1400,4721,3305,1164,56212,
2024/05/11 23:00,3292,22366,2498,2318,15143,1400,4721,3305,1165,56208,
2024/05/11 22:00,3292,22357,2498,2318,15143,1400,4721,3305,1165,56199,
2024/05/11 21:00,3294,22357,2498,2318,15143,1401,4721,3305,1165,56202,
2024/05/11 20:00,3294,22357,2496,2318,15143,1401,4724,3305,1165,56203,
2024/05/11 19:00,3297,22357,2496,2318,15143,1401,4724,3305,1166,56207,
2024/05/11 18:00,3297,22366,2496,2318,15136,1401,4724,3305,1166,56209,
2024/05/11 17:00,3299,22366,2496,2320,15136,1401,4724,3305,1166,56213,
2024/05/11 16:00,3299,22366,2496,2320,15136,1401,4724,3305,1166,56213,
2024/05/11 15:00,3299,22366,2493,2320,15136,1401,4727,3305,1166,56213,
2024/05/11 14:00,3301,22366,2493,2322,15136,1401,4727,3305,1166,56217,
2024/05/11 13:00,3301,22366,2493,2322,15136,1402,4727,3305,1166,56218,
2024/05/11 12:00,3301,22366,2493,2324,15129,1402,4730,3305,1166,56216,
2024/05/11 11:00,3303,22366,2491,2326,15129,1402,4730,3305,1167,56219,
2024/05/11 10:00,3303,22366,2491,2326,15129,1402,4730,3305,1167,56219,
2024/05/11 09:00,3303,22376,2491,2326,15129,1402,4730,3305,1167,56229,
2024/05/11 08:00,3305,22366,2491,2326,15123,1402,4733,3305,1168,56219,
2024/05/11 07:00,3305,22366,2488,2326,15123,1402,4733,3305,1168,56216,
2024/05/11 06:00,3305,22366,2488,2324,15123,1402,4733,3305,1168,56214,
2024/05/11 05:00,3308,22366,2486,2324,15123,1403,4736,3305,1169,56220,
2024/05/11 04:00,3308,22366,2486,2324,15123,1403,4736,3305,1169,56220,
2024/05/11 03:00,3308,22366,2486,2322,15123,1403,4736,3305,1169,56218,
2024/05/11 02:00,3310,22366,2486,2322,15123,1403,4736,3305,1169,56220,
2024/05/11 01:00,3310,22366,2483,2322,15123,1403,4739,3305,1169,56220,
2024/05/11 00:00,3310,22376,2483,2322,15123,1403,4739,3305,1169,56230,
2024/05/10 23:00,3312,22376,2483,2322,15123,1403,4739,3305,1169,56232,
2024/05/10 22:00,3312,22376,2483,2320,15116,1404,4742,3305,1169,56227,
2024/05/10 21:00,3312,22376,2481,2320,15116,1404,4742,3305,1169,56225,
2024/05/10 20:00,3314,22376,2481,2320,15116,1404,4742,3305,1170,56228,
2024/05/10 19:00,3314,22376,2481,2320,15116,1405,4745,3305,1170,56232,
2024/05/10 18:00,3314,22376,2478,2320,15116,1405,4745,3305,1170,56229,
2024/05/10 17:00,3317,22376,2478,2320,15109,1405,4745,3305,1170,56225,
2024/05/10 16:00,3317,22376,2478,2320,15109,1405,4748,3305,1170,56228,
2024/05/10 15:00,3319,22376,2478,2322,15109,1405,4748,3305,1171,56233,
2024/05/10 14:00,3319,22376,2476,2322,15109,1405,4748,3305,1171,56231,
2024/05/10 13:00,3319,22376,2476,2322,15109,1405,4751,3305,1171,56234,
2024/05/10 12:00,3314,22376,2476,2324,15109,1405,4751,3305,1172,56232,
2024/05/10 11:00,3321,22376,2476,2324,15109,1405,4751,3305,1172,56239,
2024/05/10 10:00,3321,22376,2474,2324,15109,1406,4751,3305,1172,56238,
2024/05/10 09:00,3323,22376,2474,2326,15103,1406,4754,3305,1172,56239,
2024/05/10 08:00,3323,22376,2474,2326,15103,1406,4754,3310,1172,56244,
2024/05/10 07:00,3326,22385,2471,2326,15103,1406,4754,3310,1172,56253,
2024/05/10 06:00,3326,22385,2471,2328,15103,1406,4757,3310,1172,56258,
2024/05/10 05:00,3326,22385,2471,2328,15103,1406,4757,3310,1172,56258,
2024/05/10 04:00,3328,22385,2471,2328,15103,1406,4757,3310,1172,56260,
2024/05/10 03:00,3328,22385,2469,2330,15103,1406,4760,3310,1172,56263,
2024/05/10 02:00,3328,22385,2469,2330,15096,1407,4760,3310,1173,56258,
2024/05/10 01:00,3328,22385,2469,2330,15096,1407,4760,3310,1173,56258,
2024/05/10 00:00,3330,22385,2466,2332,15096,1407,4760,3310,1173,56259,
2024/05/09 23:00,3330,22385,2466,2332,15096,1407,4763,3310,1173,56262,
2024/05/09 22:00,3330,22385,2466,2332,15096,1408,4763,3310,1173,56263,
2024/05/09 21:00,3332,22385,2466,2334,15096,1408,4763,3310,1174,56268,
2024/05/09 20:00,3332,22385,2464,2334,15090,1408,4766,3310,1174,56263,
2024/05/09 19:00,3332,22385,2464,2334,15090,1408,4766,3310,1174,56263,
2024/05/09 18:00,3335,22385,2464,2334,15090,1408,4766,3310,1174,56266,
2024/05/09 17:00,3335,22385,2461,2334,15090,1408,4769,3310,1174,56266,
2024/05/09 16:00,3335,22385,2461,2334,15090,1408,4769,3310,1175,56267,
2024/05/09 15:00,3335,22385,2461,2334,15090,1408,4769,3310,1175,56267,
2024/05/09 14:00,3337,22385,2461,2334,15090,1408,4772,3310,1175,56272,
2024/05/09 13:00,3337,22385,2459,2334,15090,1408,4772,3310,1175,56270,
2024/05/09 12:00,3337,22385,2459,2334,15083,1408,4772,3310,1175,56263,
2024/05/09 11:00,3339,22385,2459,2334,15083,1409,4775,3310,1175,56269,
2024/05/09 10:00,3339,22385,2459,2334,15083,1409,4775,3310,1176,56270,
2024/05/09 09:00,3339,22385,2456,2334,15083,1409,4775,3310,1176,56267,
2024/05/09 08:00,3341,22385,2456,2334,15083,1410,4778,3362,1176,56325,
2024/05/09 07:00,3341,22385,2456,2335,15083,1410,4778,3362,1176,56326,
2024/05/09 06:00,3341,22385,2454,2335,15083,1410,4781,3362,1176,56327,
2024/05/09 05:00,3341,22385,2454,2335,15076,1410,4781,3362,1176,56320,
2024/05/09 04:00,3341,22385,2454,2335,15076,1410,4781,3362,1176,56320,
2024/05/09 03:00,3343,22385,2452,2337,15076,1410,4781,3362,1176,56322,
2024/05/09 02:00,3343,22385,2452,2337,15076,1410,4781,3362,1176,56322,
2024/05/09 01:00,3343,22395,2452,2337,15076,1412,4784,3362,1176,56337,
2024/05/09 00:00,3343,22395,2452,2337,15076,1412,4784,3362,1176,56337,
2024/05/08 23:00,3346,22395,2449,2339,15070,1412,4784,3362,1176,56333,
2024/05/08 22:00,3346,22395,2449,2339,15076,1412,4787,3362,1176,56342,
2024/05/08 21:00,3346,22395,2449,2339,15070,1412,4787,3362,1176,56336,
2024/05/08 20:00,3346,22395,2447,2341,15070,1412,4787,3362,1177,56337,
2024/05/08 19:00,3348,22395,2447,2341,15070,1412,4787,3362,1177,56339,
2024/05/08 18:00,3348,22395,2447,2341,15070,1412,4790,3362,1177,56342,
2024/05/08 17:00,3348,22395,2447,2343,15076,1412,4790,3362,1177,56350,
2024/05/08 16:00,3348,22395,2444,2343,15070,1412,4790,3362,1177,56341,
2024/05/08 15:00,3348,22395,2444,2343,15070,1414,4793,3362,1177,56346,
2024/05/08 14:00,3350,22395,2442,2345,15070,1414,4793,3362,1177,56348,
2024/05/08 13:00,3350,22395,2442,2345,15070,1414,4793,3362,1177,56348,
2024/05/08 12:00,3350,22395,2442,2347,15063,1414,4796,3362,1178,56347,
2024/05/08 11:00,3352,22395,2439,2347,15063,1414,4796,3362,1178,56346,
2024/05/08 10:00,3352,22395,2439,2349,15063,1414,4796,3362,1178,56348,
2024/05/08 09:00,3352,22395,2439,2349,15056,1414,4796,3362,1178,56341,
2024/05/08 08:00,3352,22395,2437,2349,15063,1414,4799,3362,1178,56349,
2024/05/08 07:00,3355,22395,2437,2349,15056,1460,4847,3361,1178,56438,